Flag for Germany Weather past 2 weeks in Kassel, Hesse, Germany

Now
72 °F

Clear.


Feels Like: 76 °F
Forecast: 56 / 68 °F
Wind: 5 mph from South

Location: Kassel / Calden

Current Time: Sep 1, 2015 at 12:52:48 AM

Latest Report: Aug 31, 2015 at 11:20 PM


Visibility: 10 mi

Pressure: 29.80 "Hg

Humidity: 61%

Dew point: 57 °F

Location of KasselLocation

Historic Weather in Kassel — Graph

°F

Kassel temperature yesterday

Maximum temperature yesterday: 90 °F (at 4:20 PM)
Minimum temperature yesterday: 63 °F (at 5:50 AM)
Average temperature yesterday: 79 °F

Past Weeks' High & Low Weather Summary

 TemperatureHumidityPressure
High90 °F (Aug 31, 4:20 PM)100% (Aug 17, 5:50 AM)30.30 "Hg (Aug 17, 5:50 AM)
Low48 °F (Aug 19, 5:50 AM)30% (Aug 22, 3:20 PM)29.65 "Hg (Aug 24, 4:50 PM)
Average66 °F70%30.01 "Hg
* Reported Aug 17 5:50 AM — Aug 31 11:20 PM, Kassel, Weather by CustomWeather, © 2015

Note: Actual official high and low records may vary slightly from our data, if they occured in-between our weather recording intervals... More about our weather records

Advertising

Kassel weather history for previous 24 hours

 ConditionsComfort  
Time TempWeatherWind HumidityBarometerVisibility
11:20 PM
Mon, Aug 31
72 °FClear.5 mph61%29.80 "Hg10 mi
10:50 PM72 °FClear.8 mph61%29.80 "Hg10 mi
10:20 PM73 °FClear.7 mph57%29.80 "Hg10 mi
9:50 PM77 °FClear.7 mph51%29.80 "Hg10 mi
9:20 PM77 °FClear.6 mph51%29.80 "Hg10 mi
8:50 PM79 °FSunny.7 mph48%29.80 "Hg10 mi
8:20 PM79 °FSunny.6 mph48%29.80 "Hg10 mi
7:50 PM81 °FPassing clouds.7 mph48%29.80 "HgN/A
7:20 PM84 °FSunny.9 mph43%29.80 "Hg10 mi
6:50 PM84 °FSunny.13 mph40%29.80 "Hg10 mi
6:20 PM86 °FPassing clouds.13 mph40%29.80 "HgN/A
5:50 PM88 °FSunny.15 mph38%29.83 "Hg10 mi
5:20 PM88 °FPassing clouds.15 mph38%29.83 "HgN/A
4:50 PM88 °FSunny.14 mph40%29.83 "Hg10 mi
4:20 PM90 °FPassing clouds.14 mph36%29.83 "HgN/A
3:50 PM88 °FSunny.13 mph38%29.86 "Hg10 mi
3:20 PM88 °FSunny.15 mph38%29.86 "Hg10 mi
2:50 PM88 °FSunny.15 mph38%29.86 "Hg10 mi
2:20 PM88 °FPassing clouds.13 mph38%29.86 "HgN/A
1:50 PM88 °FPassing clouds.12 mph38%29.89 "HgN/A
1:20 PM86 °FSunny.14 mph46%29.89 "Hg10 mi
12:50 PM86 °FSunny.10 mph46%29.89 "Hg10 mi
12:20 PM84 °FSunny.9 mph55%29.92 "Hg10 mi
11:50 AM82 °FSunny.10 mph58%29.92 "Hg10 mi
11:20 AM82 °FSunny.10 mph58%29.92 "Hg10 mi
10:50 AM79 °FSunny.9 mph65%29.95 "Hg10 mi
10:20 AM79 °FSunny.7 mph65%29.95 "Hg10 mi
9:50 AM75 °FPassing clouds.3 mph74%29.95 "HgN/A
9:20 AM73 °FPassing clouds.5 mph78%29.95 "HgN/A
8:50 AM70 °FSunny.5 mph88%29.95 "Hg10 mi
8:20 AM68 °FSunny.3 mph100%29.95 "Hg10 mi
7:50 AM68 °FSunny.2 mph94%29.95 "Hg10 mi
7:20 AM66 °FClear.3 mph94%29.95 "Hg5 mi
6:50 AM63 °FClear.5 mph100%29.98 "Hg4 mi
6:20 AM63 °FFog.5 mph100%29.98 "Hg2 mi
5:50 AM63 °FFog.2 mph100%29.98 "Hg2 mi
Weather by CustomWeather, © 2015

See weather overviewHow to use our weather pages